Starlink 4430

operational
NORAD ID: 53485 Int'l Des: 2022-099 Owner: SPXS Country: US Constellation: starlink
LEOCIRCULARRETROGRADESSO

About Starlink 4430

Description loading...

Live Position

Loading 3D Globe...

Upcoming Passes

Altitude History

Altitude vs Time

uPlot chart will show altitude changes over time

Two-Line Element Set

1 53485U 22099W 25354.77978775 -.00000270 00000-0 -16487-4 0 9994
2 53485 97.6001 112.9539 0000933 224.2482 135.8668 15.01260512184147
Epoch: Dec 20, 2025 • Age: 6 hours

Current Status

Altitude 581.6 km
Velocity 7.57 km/s
Sub-Earth Point -47.87°S, 18.3°E
Launch Date Aug 12, 2022
Age 3.3 years
Type internet

Technical Details

Classification Payload
Mass 300.00 kg
Dry Mass 275.00 kg
Total Mass 300.00 kg
Length 0.20 m
Diameter 2.80 m
Span 9.00 m
Shape Box + pan
Manufacturer SPXS
Bus Type Starlink
Phase Status In Orbit
Owner/State SPXS/US

Large Constellations

Loading constellations...